Regional Weather Roundup
Issued by NWS Kansas City/Pleasant Hill, MO

Home | Current Version | Previous Version | Graphics & Text | Print | Product List | Glossary Off
Versions: 1 2 3 4 5 6 7 8 9 10 11 12 13 14 15 16 17 18 19 20 21 22 23 24 25 26

000
ASUS43 KEAX 170410
RWREAX

WEATHER ROUNDUP FOR EASTERN KANSAS AND NORTHWEST MISSOURI
NATIONAL WEATHER SERVICE KANSAS CITY/PLEASANT HILL MO
1000 PM CST FRI FEB 16 2018

KSZ040-057-103>105-MOZ028-029-037-043-170500-
...KANSAS CITY METROPOLITAN AREA...

CITY           SKY/WX    TMP DP  RH WIND       PRES   REMARKS
K.C. INTL      CLOUDY    28   8  43 SE7       30.20F WCI  21
K.C. DOWNTOWN  MOCLDY    34   7  32 SE9       30.21F WCI  27
LEES SUMMIT    CLOUDY    30   7  37 SE7       30.21F WCI  23
OLATHE - IXD   CLOUDY    30  10  43 SE6       30.20F WCI  24
OLATHE - OJC   CLOUDY    29   9  43 SE6       30.20F WCI  23
LAWRENCE       CLOUDY    26  16  65 E3        30.21F

$$

MOZ001>008-011>017-020>025-030>033-038>040-044>046-053-054-170500-
...NORTHERN AND CENTRAL MISSOURI...

CITY           SKY/WX    TMP DP  RH WIND       PRES   REMARKS
ST. JOSEPH     PTCLDY    23  14  68 CALM      30.21F
MOSBY            N/A     27  10  50 CALM      30.23F
WARRENSBURG    CLOUDY    30   9  40 E5        30.24S WCI  25
WHITEMAN AFB   CLOUDY    28   7  40 CALM      30.20F
CLINTON        CLOUDY    28  14  54 E3        30.24F
SEDALIA        CLOUDY    29  11  47 SE5       30.25F WCI  24
WARSAW         NOT AVBL
CHILLICOTHE      N/A     20   9  62 CALM      30.24F
KIRKSVILLE     CLOUDY    21  11  65 SE6       30.23F WCI  13

$$

MOZ041-047>049-056>058-063>065-088>090-097-170500-
...EASTERN AND SOUTHERN MISSOURI...

CITY           SKY/WX    TMP DP  RH WIND       PRES   REMARKS
ST. LOUIS INTL CLOUDY    31  19  61 E6        30.29F WCI  25
SPIRIT OF STL  PTCLDY    30  21  69 CALM      30.28F
COLUMBIA       PTCLDY    30   9  41 E6        30.24F WCI  24
JEFFERSON CITY PTCLDY    32   9  38 SE5       30.27F WCI  27
ROLLA          PTCLDY    32  19  58 SE6       30.25F WCI  26
OSAGE BEACH    CLOUDY    32  17  54 CALM      30.26S
SPRINGFIELD    PTCLDY    37  24  59 E7        30.20F WCI  32
BRANSON        CLOUDY    37  28  70 E6        30.21F WCI  33
JOPLIN         MOCLDY    36  23  59 E8        30.21F WCI  30
WEST PLAINS    CLOUDY    33  27  78 NE3       30.24F

$$

IAZ060-094-KSZ022-034>040-054-083-096-NEZ052-066-093-170500-
...KANSAS...SOUTHEAST NEBRASKA AND IOWA...

CITY           SKY/WX    TMP DP  RH WIND       PRES   REMARKS
TOPEKA         PTCLDY    29  13  51 E5        30.19F WCI  24
MANHATTAN      CLOUDY    30  12  47 CALM      30.16F
EMPORIA        PTCLDY    30  14  51 SE6       30.17F WCI  24
CHANUTE        CLOUDY    35  17  47 SE7       30.20F WCI  29
WICHITA        PTCLDY    36  15  42 SE9       30.15F WCI  29
OMAHA          CLOUDY    27  14  58 S8        30.13F WCI  19
LINCOLN        CLOUDY    23  14  68 S7        30.12F WCI  15
FALLS CITY     CLOUDY    24   8  50 SE5       30.18F WCI  18
LAMONI         CLOUDY    24   7  48 S7        30.19F WCI  16
DES MOINES     CLOUDY    22  11  62 S8        30.18F WCI  12

$$





USA.gov is the U.S. government's official web portal to all federal, state and local government web resources and services.